Regional Weather Roundup
Issued by NWS Sioux Falls, SD

Home | Current Version | Previous Version | Graphics & Text | Print | Product List | Glossary On
Versions: 1 2 3 4 5 6 7 8 9 10 11 12 13 14 15 16 17 18 19 20 21 22 23 24 25 26 27 28 29 30 31 32 33 34 35 36 37 38 39 40 41 42 43 44 45 46 47 48 49 50
000
ASUS43 KFSD 242010
RWRFSD

WEATHER ROUNDUP FOR SE SOUTH DAKOTA/SW MINNESOTA/NW IOWA
NATIONAL WEATHER SERVICE SIOUX FALLS SD
200 PM CST FRI NOV 24 2017

NOTE: "FAIR" INDICATES FEW OR NO CLOUDS BELOW 12,000 FEET WITH NO
SIGNIFICANT WEATHER AND OR OBSTRUCTIONS TO VISIBILITY.


SDZ038>040-050-052>070-242100-
SOUTHEAST SOUTH DAKOTA

CITY           SKY/WX    TMP DP  RH WIND       PRES   REMARKS
BROOKINGS      CLOUDY    54  43  66 NW33G39   29.53
CHAMBERLAIN    MOSUNNY   58  39  48 NW26G41   29.71R
HURON          MOSUNNY   56  38  50 NW22G36   29.65R
MADISON        FAIR      55  43  62 NW28G43   29.55R
MITCHELL       MOSUNNY   59  41  51 NW35G44   29.64R
SIOUX FALLS    PTSUNNY   59  42  53 NW28G38   29.54R
WINNER         FAIR      61  34  36 NW32G40   29.74R
YANKTON        MOSUNNY   60  39  45 NW33G41   29.61R
$$

MNZ071-072-080-081-089-090-097-098-242100-
SOUTHWEST MINNESOTA

CITY           SKY/WX    TMP DP  RH WIND       PRES   REMARKS
FAIRMONT       MOSUNNY   64  40  41 NW31      29.46R
JACKSON        PTSUNNY   61  34  36 NW24G44   29.47R
LUVERNE        PTSUNNY   55  37  50 NW28G41   29.53R
MARSHALL       CLOUDY    56  42  59 NW29G36   29.48R
MONTEVIDEO     CLOUDY    50  43  76 N14G30    29.49R
PIPESTONE      CLOUDY    54  39  58 NW20G26   29.52R
REDWOOD FALLS  CLOUDY    58  42  55 NW23G33   29.44R
WINDOM           N/A     61  37  41 W33       29.46R
WORTHINGTON    CLOUDY    59  38  45 W30G40    29.50S
$$

IAZ001>003-012>014-020>022-031-032-NEZ013-014-SDZ071-242100-
NORTHWEST IOWA

CITY           SKY/WX    TMP DP  RH WIND       PRES   REMARKS
CHEROKEE       SUNNY     66  37  34 NW21G37   29.54S
DENISON        SUNNY     64  41  42 N21G33    29.57R
ESTHERVILLE    CLOUDY    64  38  38 NW33G44   29.49R
LE MARS        MOSUNNY   66  37  34 NW25G37   29.54F
ORANGE CITY    SUNNY     66  39  37 NW23G33   29.53S
SHELDON        MOSUNNY   64  36  34 NW31G39   29.50S
SIOUX CITY     SUNNY     68  39  34 N30G38    29.55R
SPENCER        PTSUNNY   64  36  35 NW30G49   29.51R
STORM LAKE     SUNNY     64  39  39 NW30G39   29.53R
$$

ABBREVIATIONS USED IN REMARKS
   TC - TEMPERATURE IN CELSIUS
  WCI - WIND CHILL INDEX
   HX - HEAT INDEX
  VSB - VISIBILITY





USA.gov is the U.S. government's official web portal to all federal, state and local government web resources and services.